EW5637 Weather Reports


Display with metric or nautical units.
time (UTC)temp
F
wind
direction
speed
MPH
gust
MPH
rain 1hr
in
rain 24hr
in
rain mn
in
humidity
%
barometer
mb
20260505235043 74 172 4.0 11.0 0.00 0.00 0.00 42 1008.0
20260505234606 74 179 4.0 14.0 0.00 0.00 0.00 41 1008.0
20260505234042 75 145 5.0 14.0 0.00 0.00 0.00 42 1008.1
20260505233541 75 167 6.0 13.0 0.00 0.00 0.00 40 1008.0
20260505233049 75 159 5.0 16.0 0.00 0.00 0.00 41 1008.0
20260505232540 75 167 8.0 16.0 0.00 0.00 0.00 40 1008.0
20260505232043 75 165 8.0 15.0 0.00 0.00 0.00 41 1007.9
20260505231549 75 191 5.0 15.0 0.00 0.00 0.00 42 1007.9
20260505231041 75 182 5.0 15.0 0.00 0.00 0.00 41 1007.8
20260505230541 75 175 4.0 12.0 0.00 0.00 0.00 41 1007.9
20260505230053 76 180 4.0 14.0 0.00 0.00 0.00 41 1007.9
20260505225542 76 182 6.0 14.0 0.00 0.00 0.00 41 1008.0
20260505225042 76 178 5.0 14.0 0.00 0.00 0.00 43 1007.9
20260505224551 76 162 4.0 15.0 0.00 0.00 0.00 43 1007.9
20260505224045 76 161 4.0 15.0 0.00 0.00 0.00 43 1007.9
20260505223541 76 170 6.0 14.0 0.00 0.00 0.00 41 1007.8
20260505223052 77 191 5.0 15.0 0.00 0.00 0.00 42 1007.9
20260505222542 77 205 9.0 19.0 0.00 0.00 0.00 41 1007.8
20260505222040 77 169 9.0 19.0 0.00 0.00 0.00 41 1007.9
20260505221550 77 177 7.0 21.0 0.00 0.00 0.00 41 1007.8
20260505221043 77 196 10.0 21.0 0.00 0.00 0.00 41 1007.9
20260505220546 78 188 7.0 16.0 0.00 0.00 0.00 42 1007.9
20260505220052 78 183 6.0 23.0 0.00 0.00 0.00 41 1007.8
20260505215542 78 173 10.0 24.0 0.00 0.00 0.00 39 1007.7
20260505215044 78 182 11.0 24.0 0.00 0.00 0.00 41 1007.6
20260505214609 79 186 5.0 21.0 0.00 0.00 0.00 43 1007.7
20260505214041 79 179 6.0 21.0 0.00 0.00 0.00 38 1007.7
20260505213542 79 173 8.0 20.0 0.00 0.00 0.00 37 1007.5
20260505213102 79 213 3.0 16.0 0.00 0.00 0.00 42 1007.5
20260505212542 80 194 5.0 19.0 0.00 0.00 0.00 42 1007.5
20260505212042 80 161 7.0 20.0 0.00 0.00 0.00 42 1007.5
20260505211550 81 127 8.0 20.0 0.00 0.00 0.00 42 1007.5
20260505211042 81 197 8.0 17.0 0.00 0.00 0.00 41 1007.4
20260505210541 81 163 5.0 14.0 0.00 0.00 0.00 44 1007.4
20260505210057 81 155 7.0 18.0 0.00 0.00 0.00 41 1007.5
20260505205542 81 179 5.0 18.0 0.00 0.00 0.00 44 1007.5
20260505205045 81 190 8.0 18.0 0.00 0.00 0.00 43 1007.5
20260505204557 81 192 7.0 16.0 0.00 0.00 0.00 44 1007.6
20260505204041 80 175 8.0 19.0 0.00 0.00 0.00 43 1007.6
20260505203542 80 179 9.0 19.0 0.00 0.00 0.00 43 1007.6
20260505203053 80 174 7.0 19.0 0.00 0.00 0.00 43 1007.6
20260505202541 80 190 9.0 22.0 0.00 0.00 0.00 43 1007.7
20260505202041 80 200 11.0 22.0 0.00 0.00 0.00 42 1007.8
20260505201550 81 147 7.0 17.0 0.00 0.00 0.00 44 1007.7
20260505201041 80 175 9.0 19.0 0.00 0.00 0.00 41 1007.7
20260505200541 80 155 10.0 19.0 0.00 0.00 0.00 41 1007.7
20260505195540 80 206 8.0 22.0 0.00 0.00 0.00 44 1007.8
20260505195041 79 133 10.0 20.0 0.00 0.00 0.00 45 1007.9
20260505194605 79 149 8.0 22.0 0.00 0.00 0.00 42 1007.8
20260505194042 80 177 12.0 23.0 0.00 0.00 0.00 42 1008.0
20260505193543 80 181 12.0 23.0 0.00 0.00 0.00 41 1008.1
20260505193052 81 148 8.0 21.0 0.00 0.00 0.00 41 1008.0
20260505192543 81 215 6.0 17.0 0.00 0.00 0.00 40 1008.1
20260505192041 81 211 8.0 19.0 0.00 0.00 0.00 43 1008.1
20260505191550 81 175 9.0 19.0 0.00 0.00 0.00 43 1008.2
20260505191041 81 160 6.0 19.0 0.00 0.00 0.00 44 1008.1
20260505190541 81 182 5.0 20.0 0.00 0.00 0.00 45 1008.3
20260505190049 81 196 8.0 20.0 0.00 0.00 0.00 42 1008.3
20260505185541 80 186 6.0 18.0 0.00 0.00 0.00 41 1008.4
20260505185041 80 178 6.0 20.0 0.00 0.00 0.00 44 1008.4
20260505184547 79 199 6.0 20.0 0.00 0.00 0.00 45 1008.5
20260505184041 79 204 9.0 20.0 0.00 0.00 0.00 41 1008.6
20260505183544 79 142 7.0 19.0 0.00 0.00 0.00 43 1008.6
20260505183054 80 183 11.0 27.0 0.00 0.00 0.00 41 1008.7
20260505182541 80 173 11.0 27.0 0.00 0.00 0.00 41 1008.7
20260505182041 80 171 9.0 23.0 0.00 0.00 0.00 43 1008.7
20260505181550 80 180 7.0 25.0 0.00 0.00 0.00 42 1008.7
20260505181045 79 169 11.0 25.0 0.00 0.00 0.00 45 1008.8
20260505180546 79 229 7.0 19.0 0.00 0.00 0.00 42 1008.8
20260505180107 79 183 9.0 19.0 0.00 0.00 0.00 45 1008.9
20260505175541 79 194 9.0 19.0 0.00 0.00 0.00 44 1008.9
20260505175043 79 196 7.0 14.0 0.00 0.00 0.00 47 1008.9
20260505174600 79 202 6.0 20.0 0.00 0.00 0.00 46 1009.0
20260505174042 79 211 6.0 20.0 0.00 0.00 0.00 44 1009.1
20260505173540 79 198 6.0 19.0 0.00 0.00 0.00 44 1008.9
20260505173046 78 199 6.0 20.0 0.00 0.00 0.00 46 1009.0
20260505172540 77 200 6.0 22.0 0.00 0.00 0.00 45 1009.0
20260505172040 77 168 11.0 25.0 0.00 0.00 0.00 46 1009.2
20260505171552 78 188 9.0 25.0 0.00 0.00 0.00 45 1009.2
20260505171044 78 215 12.0 22.0 0.00 0.00 0.00 44 1009.2
20260505170545 78 208 8.0 17.0 0.00 0.00 0.00 50 1009.3
20260505170055 77 184 8.0 18.0 0.00 0.00 0.00 46 1009.6
20260505165541 77 212 9.0 18.0 0.00 0.00 0.00 46 1009.5
20260505165041 78 173 8.0 17.0 0.00 0.00 0.00 46 1009.5
20260505164552 78 174 6.0 20.0 0.00 0.00 0.00 48 1009.6
20260505164043 78 185 8.0 20.0 0.00 0.00 0.00 45 1009.7
20260505163541 78 208 6.0 22.0 0.00 0.00 0.00 47 1009.9
20260505163055 77 261 7.0 22.0 0.00 0.00 0.00 53 1009.8
20260505162540 78 186 7.0 18.0 0.00 0.00 0.00 48 1010.1
20260505162041 77 167 6.0 21.0 0.00 0.00 0.00 49 1010.1
20260505161607 77 192 7.0 25.0 0.00 0.00 0.00 47 1010.1
20260505161042 77 164 12.0 25.0 0.00 0.00 0.00 49 1010.1
20260505160542 77 221 9.0 20.0 0.00 0.00 0.00 48 1010.2
20260505153052 76 180 7.0 18.0 0.00 0.00 0.00 46 1010.3
20260505152542 76 196 6.0 28.0 0.00 0.00 0.00 50 1010.3
20260505152041 76 212 11.0 28.0 0.00 0.00 0.00 50 1010.3
20260505151549 75 234 7.0 23.0 0.00 0.00 0.00 51 1010.4
20260505151041 75 225 11.0 23.0 0.00 0.00 0.00 47 1010.4
20260505150542 75 244 9.0 26.0 0.00 0.00 0.00 51 1010.3
20260505140538 70 108 4.0 10.0 0.00 0.00 0.00 66 1010.6
20260505125040 63 102 5.0 9.0 0.00 0.00 0.00 71 1011.3
20260505124547 63 114 6.0 9.0 0.00 0.00 0.00 73 1011.3
20260505124042 62 123 5.0 9.0 0.00 0.00 0.00 75 1011.5
20260505123542 62 101 6.0 9.0 0.00 0.00 0.00 73 1011.4
20260505123100 62 109 6.0 9.0 0.00 0.00 0.00 74 1011.5
20260505122539 61 95 5.0 8.0 0.00 0.00 0.00 74 1011.6
20260505122040 61 123 4.0 7.0 0.00 0.00 0.00 76 1011.6
20260505121549 60 100 2.0 7.0 0.00 0.00 0.00 77 1011.6
20260505121039 60 119 3.0 7.0 0.00 0.00 0.00 75 1011.4
20260505120541 60 108 4.0 7.0 0.00 0.00 0.00 75 1011.4
20260505120053 60 79 0.0 4.0 0.00 0.00 0.00 76 1011.4
20260505115538 59 79 2.0 4.0 0.00 0.00 0.00 77 1011.3
20260505115039 59 77 2.0 4.0 0.00 0.00 0.00 77 1011.2
20260505114552 58 0 0.0 4.0 0.00 0.00 0.00 78 1011.2
20260505114042 58 0 0.0 4.0 0.00 0.00 0.00 80 1011.1
20260505113542 57 79 0.0 3.0 0.00 0.00 0.00 80 1011.1
20260505113044 57 0 0.0 3.0 0.00 0.00 0.00 81 1011.0
20260505112541 56 79 1.0 4.0 0.00 0.00 0.00 81 1011.0
20260505112042 56 79 0.0 4.0 0.00 0.00 0.00 82 1010.9
20260505111544 55 0 1.0 4.0 0.00 0.00 0.00 83 1011.0
20260505111039 54 0 0.0 3.0 0.00 0.00 0.00 83 1010.8
20260505110538 54 84 0.0 3.0 0.00 0.00 0.00 82 1010.7
20260505102041 53 84 1.0 6.0 0.00 0.00 0.00 81 1010.1
20260505101545 53 0 1.0 6.0 0.00 0.00 0.00 81 1010.1
20260505101038 54 342 1.0 4.0 0.00 0.00 0.00 80 1010.2
20260505100541 54 0 1.0 4.0 0.00 0.00 0.00 80 1010.1
20260505100053 54 41 1.0 6.0 0.00 0.00 0.00 79 1010.0
20260505095542 54 39 0.0 6.0 0.00 0.00 0.00 79 1010.0
20260505095038 54 38 2.0 6.0 0.00 0.00 0.00 78 1010.0
20260505094553 55 0 2.0 7.0 0.00 0.00 0.00 77 1010.0
20260505094038 56 0 1.0 9.0 0.00 0.00 0.00 76 1010.0
20260505093538 57 100 1.0 9.0 0.00 0.00 0.00 73 1009.9
20260505093051 59 106 6.0 12.0 0.00 0.00 0.00 69 1009.8
20260505092538 63 94 6.0 13.0 0.00 0.00 0.00 65 1009.9
20260505092038 63 202 5.0 16.0 0.00 0.00 0.00 63 1009.8
20260505091606 62 212 6.0 16.0 0.00 0.00 0.00 66 1009.6
20260505091041 60 176 4.0 16.0 0.00 0.00 0.00 70 1009.5
20260505090541 58 201 5.0 14.0 0.00 0.00 0.00 76 1009.5
20260505090047 53 154 4.0 12.0 0.00 0.00 0.00 84 1009.5
20260505085541 51 227 3.0 9.0 0.00 0.00 0.00 88 1009.5
20260505085039 50 116 2.0 5.0 0.00 0.00 0.00 87 1009.5
20260505084545 50 0 0.0 3.0 0.00 0.00 0.00 87 1009.6
20260505084039 50 0 0.0 3.0 0.00 0.00 0.00 87 1009.8
20260505083538 50 22 1.0 3.0 0.00 0.00 0.00 85 1009.7
20260505083051 50 22 1.0 3.0 0.00 0.00 0.00 86 1009.6
20260505082538 50 0 0.0 3.0 0.00 0.00 0.00 87 1009.6
20260505082041 50 22 0.0 3.0 0.00 0.00 0.00 87 1009.7
20260505081800 50 22 0.0 4.0 0.00 0.00 0.00 86 1009.8
20260505081559 50 22 0.0 4.0 0.00 0.00 0.00 86 1009.8
20260505081041 50 22 0.0 4.0 0.00 0.00 0.00 86 1009.8
20260505080541 50 22 2.0 4.0 0.00 0.00 0.00 86 1009.8
20260505075541 50 22 0.0 4.0 0.00 0.00 0.00 85 1009.7
20260505075042 51 0 1.0 4.0 0.00 0.00 0.00 86 1009.7
20260505074548 51 5 0.0 2.0 0.00 0.00 0.00 86 1009.6
20260505074041 51 0 0.0 2.0 0.00 0.00 0.00 86 1009.4
20260505073541 51 0 0.0 2.0 0.00 0.00 0.00 86 1009.4
20260505073048 51 0 0.0 2.0 0.00 0.00 0.00 86 1009.4
20260505072540 51 5 0.0 3.0 0.00 0.00 0.00 86 1009.4
20260505072040 51 0 0.0 3.0 0.00 0.00 0.00 86 1009.4
20260505071557 51 5 2.0 5.0 0.00 0.00 0.00 85 1009.4
20260505071042 51 5 2.0 5.0 0.00 0.00 0.00 83 1009.5
20260505070542 51 5 2.0 4.0 0.00 0.00 0.00 83 1009.5
20260505070049 52 5 2.0 4.0 0.00 0.00 0.00 83 1009.4
20260505065542 52 5 1.0 3.0 0.00 0.00 0.00 83 1009.4
20260505065041 52 0 0.0 2.0 0.00 0.00 0.00 83 1009.5
20260505064543 53 0 0.0 2.0 0.00 0.00 0.00 83 1009.5
20260505064044 53 0 1.0 3.0 0.00 0.00 0.00 83 1009.4
20260505063541 53 5 1.0 4.0 0.00 0.00 0.00 83 1009.5
20260505063105 53 5 2.0 4.0 0.00 0.00 0.00 82 1009.6
20260505062541 53 5 2.0 4.0 0.00 0.00 0.00 81 1009.6
20260505062040 54 5 1.0 3.0 0.00 0.00 0.00 79 1009.7
20260505061612 54 5 0.0 3.0 0.00 0.00 0.00 77 1009.7
20260505061041 55 5 1.0 3.0 0.00 0.00 0.00 77 1009.6
20260505060541 56 0 0.0 3.0 0.00 0.00 0.00 76 1009.6
20260505060055 56 0 0.0 3.0 0.00 0.00 0.00 75 1009.6
20260505055541 57 0 0.0 3.0 0.00 0.00 0.00 75 1009.7
20260505055041 57 0 1.0 3.0 0.00 0.00 0.00 74 1009.7
20260505054606 58 109 0.0 2.0 0.00 0.00 0.00 73 1009.7
20260505054039 59 0 0.0 2.0 0.00 0.00 0.00 71 1009.7
20260505053539 60 0 0.0 4.0 0.00 0.00 0.00 69 1009.6
20260505053045 60 0 1.0 6.0 0.00 0.00 0.00 69 1009.7
20260505052540 61 109 2.0 7.0 0.00 0.00 0.00 68 1009.6
20260505052152 61 121 3.0 7.0 0.00 0.00 0.00 67 1009.7
20260505051611 62 148 2.0 7.0 0.00 0.00 0.00 66 1009.7
20260505051041 63 186 1.0 8.0 0.00 0.00 0.00 65 1009.6
20260505050540 64 187 2.0 8.0 0.00 0.00 0.00 63 1009.7
20260505041556 63 194 0.0 8.0 0.00 0.00 0.00 64 1009.5
20260505041041 63 221 2.0 9.0 0.00 0.00 0.00 63 1009.5
20260505040544 64 200 4.0 9.0 0.00 0.00 0.00 63 1009.5
20260505040053 64 167 4.0 9.0 0.00 0.00 0.00 63 1009.5
20260505035540 64 207 2.0 8.0 0.00 0.00 0.00 63 1009.5
20260505035041 64 195 3.0 9.0 0.00 0.00 0.00 63 1009.5
20260505034549 64 231 3.0 9.0 0.00 0.00 0.00 63 1009.5
20260505034038 63 193 2.0 6.0 0.00 0.00 0.00 63 1009.5
20260505033538 63 254 2.0 8.0 0.00 0.00 0.00 65 1009.5
20260505033049 62 227 2.0 8.0 0.00 0.00 0.00 66 1009.5
20260505032541 61 197 3.0 8.0 0.00 0.00 0.00 67 1009.6
20260505032042 60 256 1.0 8.0 0.00 0.00 0.00 70 1009.5
20260505031553 58 203 2.0 6.0 0.00 0.00 0.00 73 1009.6
20260505031040 58 213 0.0 4.0 0.00 0.00 0.00 73 1009.6
20260505030543 58 0 1.0 4.0 0.00 0.00 0.00 73 1009.6
20260505030055 58 0 0.0 3.0 0.00 0.00 0.00 72 1009.5
20260505025541 59 0 0.0 2.0 0.00 0.00 0.00 71 1009.5
20260505025040 59 0 0.0 2.0 0.00 0.00 0.00 70 1009.5
20260505024548 60 200 0.0 3.0 0.00 0.00 0.00 68 1009.6
20260505024042 60 0 0.0 3.0 0.00 0.00 0.00 67 1009.6
20260505023540 61 0 0.0 4.0 0.00 0.00 0.00 66 1009.4
20260505023043 62 200 1.0 5.0 0.00 0.00 0.00 65 1009.4
20260505022541 62 202 1.0 6.0 0.00 0.00 0.00 65 1009.5
20260505022038 62 0 1.0 6.0 0.00 0.00 0.00 64 1009.3
20260505021552 63 182 1.0 5.0 0.00 0.00 0.00 63 1009.3
20260505021038 63 201 1.0 4.0 0.00 0.00 0.00 62 1009.4
20260505020541 64 180 1.0 6.0 0.00 0.00 0.00 62 1009.5
20260505020052 64 198 2.0 7.0 0.00 0.00 0.00 61 1009.5
20260505015542 64 213 2.0 7.0 0.00 0.00 0.00 61 1009.6
20260505015038 64 187 3.0 7.0 0.00 0.00 0.00 61 1009.5
20260505014549 64 169 0.0 8.0 0.00 0.00 0.00 60 1009.4
20260505014040 64 217 3.0 13.0 0.00 0.00 0.00 61 1009.4
20260505013537 63 180 2.0 13.0 0.00 0.00 0.00 62 1009.3
20260505013057 61 196 3.0 10.0 0.00 0.00 0.00 64 1009.3
20260505012540 60 178 2.0 6.0 0.00 0.00 0.00 65 1009.2
20260505012040 60 0 1.0 3.0 0.00 0.00 0.00 65 1009.3
20260505011553 60 0 1.0 3.0 0.00 0.00 0.00 64 1008.8
20260505011042 60 0 0.0 1.0 0.00 0.00 0.00 65 1009.0
20260505010540 60 0 0.0 2.0 0.00 0.00 0.00 65 1009.0
20260505010109 60 0 0.0 2.0 0.00 0.00 0.00 64 1008.9
20260505005538 61 0 0.0 2.0 0.00 0.00 0.00 63 1009.1
20260505005040 61 197 0.0 2.0 0.00 0.00 0.00 62 1008.9
20260505004548 62 0 0.0 0.0 0.00 0.00 0.00 60 1009.0
20260505004040 63 0 0.0 0.0 0.00 0.00 0.00 60 1008.8
20260505003538 63 0 0.0 2.0 0.00 0.00 0.00 58 1008.7
20260505003056 64 0 0.0 4.0 0.00 0.00 0.00 58 1008.7
20260505002540 65 199 0.0 6.0 0.00 0.00 0.00 56 1008.7
20260505002041 65 199 2.0 6.0 0.00 0.00 0.00 54 1008.6
20260505001550 66 198 3.0 7.0 0.00 0.00 0.00 53 1008.6
20260505001037 66 176 3.0 8.0 0.00 0.00 0.00 52 1008.5
20260505000540 67 186 3.0 8.0 0.00 0.00 0.00 52 1008.5
20260505000054 67 188 3.0 8.0 0.00 0.00 0.00 51 1008.6
20260504235540 68 179 3.0 9.0 0.00 0.00 0.00 50 1008.6